Temp
13 16 16 16 17 16 15 14 14 13 13 14 15 14 14 14 14 11 8 6 7 7 4 4 5 4 4 4 4 4 3 3 2 2 1 1 1 0 -0 -1 -1 -1 -2 -2 -2 -3 -3 -3 -3 -4 -4 -4 -4 -4 -4 -4 -4 -4 -4 -3 -4 -4 -3 -3 -3 -3 -3 -3 -3 -3 -3 -3 -3 -2 -2 -1 -1 -2 -2 -2 -2 -2 -2 -2 -2 -2
13 16 16 15 14 13 11 11 10 11 12 13 14 14 13 13 13 10 8 7 7 7 5 4 5 4 4 3 3 2 2 2 1 1 1 0 0 -0 -1 -1 -1 -1 -2 -2 -2 -3 -3 -4 -4 -4 -5 -5 -5 -5 -5 -5 -5 -5 -5 -5 -5 -5 -4 -5 -5 -5 -5 -5 -5 -5 -5 -5 -4 -4 -4 -4 -4 -4 -4 -4 -3 -3 -3 -3 -3 -3
15 16 15 12 9 9 9 9 10 12 12 13 13 13 13 13 11 9 8 7 7 6 5 5 4 4 4 3 2 2 1 1 1 0 0 -0 -0 -1 -1 -1 -2 -2 -2 -2 -3 -3 -4 -4 -5 -5 -5 -5 -5 -6 -6 -6 -6 -6 -6 -6 -7 -6 -6 -6 -6 -6 -6 -6 -6 -6 -6 -6 -5 -5 -5 -6 -6 -6 -6 -6 -6 -5 -5 -4 -4 -4
16 15 12 9 8 10 11 10 11 12 12 13 12 13 14 12 11 12 9 6 7 6 5 5 5 4 4 2 2 2 1 1 1 0 0 -0 -1 -1 -2 -2 -2 -2 -3 -3 -3 -3 -4 -4 -5 -5 -5 -6 -6 -6 -6 -7 -7 -7 -7 -7 -7 -8 -7 -7 -7 -7 -7 -7 -7 -7 -6 -6 -6 -6 -6 -7 -7 -7 -7 -7 -7 -6 -6 -6 -5 -5
16 12 8 8 9 10 12 11 11 13 13 12 12 13 14 12 12 11 8 6 6 6 6 6 5 4 4 3 1 1 1 0 0 -0 -0 -0 -1 -1 -2 -2 -3 -3 -3 -3 -4 -4 -4 -5 -5 -6 -6 -6 -6 -6 -7 -7 -8 -8 -8 -8 -8 -8 -8 -8 -8 -8 -8 -8 -8 -7 -7 -7 -7 -7 -8 -8 -8 -8 -8 -8 -8 -7 -7 -7 -6 -6
14 9 6 10 11 10 13 13 12 13 13 13 12 11 12 12 11 9 7 8 7 6 7 8 8 6 4 3 2 1 1 -0 -0 -0 -1 -1 -1 -2 -2 -3 -3 -3 -3 -4 -4 -4 -5 -5 -5 -6 -6 -7 -7 -7 -7 -7 -8 -8 -8 -8 -8 -9 -9 -9 -9 -8 -9 -9 -9 -9 -8 -8 -8 -8 -9 -9 -9 -9 -9 -9 -9 -9 -8 -8 -7 -7
12 8 8 11 12 12 13 13 12 11 13 14 11 8 10 11 10 8 8 10 10 9 8 8 10 8 4 3 2 0 0 -0 -0 -1 -1 -1 -2 -2 -3 -3 -3 -3 -4 -4 -4 -4 -5 -5 -6 -6 -7 -7 -7 -7 -7 -7 -8 -8 -8 -9 -9 -9 -9 -9 -9 -9 -9 -10 -10 -9 -9 -9 -9 -10 -10 -10 -10 -10 -10 -10 -10 -10 -9 -8 -8 -8
11 11 11 12 13 13 13 13 11 10 13 13 9 8 10 11 11 10 10 11 11 10 8 7 9 8 5 4 2 0 0 -0 -1 -1 -1 -2 -2 -3 -3 -3 -4 -4 -4 -4 -5 -5 -5 -5 -6 -6 -7 -7 -7 -8 -8 -8 -8 -8 -9 -9 -9 -9 -10 -10 -10 -10 -10 -10 -10 -10 -10 -10 -10 -11 -11 -11 -11 -11 -11 -11 -11 -11 -10 -10 -9 -9
10 12 12 12 13 12 12 11 9 9 12 11 7 7 9 10 10 10 10 11 9 9 10 7 8 9 6 3 1 1 1 -1 -1 -1 -2 -2 -2 -3 -3 -3 -4 -4 -4 -4 -5 -5 -5 -6 -6 -6 -7 -7 -8 -8 -8 -8 -8 -8 -9 -9 -10 -10 -10 -10 -10 -11 -11 -11 -11 -11 -11 -11 -11 -11 -12 -12 -12 -12 -12 -12 -12 -12 -11 -11 -10 -11
10 10 9 10 12 12 11 9 7 9 11 9 6 7 8 8 8 8 9 10 9 9 10 8 7 10 7 2 1 2 1 -0 -1 -1 -1 -2 -2 -3 -3 -3 -4 -4 -4 -4 -5 -5 -5 -6 -6 -6 -7 -7 -8 -8 -8 -8 -8 -9 -9 -10 -10 -10 -11 -11 -11 -11 -11 -11 -11 -11 -11 -12 -12 -12 -12 -12 -12 -12 -12 -12 -12 -12 -12 -11 -12 -12
9 7 7 9 10 9 9 7 5 7 8 7 7 9 9 8 8 8 8 8 9 10 9 7 7 9 8 4 2 2 1 0 -1 -2 -1 -2 -2 -3 -3 -4 -4 -4 -4 -4 -5 -5 -5 -6 -6 -6 -7 -8 -8 -8 -9 -9 -9 -9 -10 -10 -10 -11 -11 -11 -12 -12 -12 -12 -12 -12 -12 -12 -12 -13 -13 -13 -13 -13 -13 -13 -12 -12 -12 -12 -13 -13
9 9 9 8 7 7 8 8 6 5 6 7 9 10 10 10 9 9 8 8 10 10 8 6 6 8 8 4 1 0 0 -0 -1 -2 -2 -2 -2 -3 -3 -3 -4 -4 -4 -4 -4 -5 -5 -6 -6 -7 -7 -8 -8 -9 -9 -9 -9 -9 -10 -10 -11 -11 -11 -12 -12 -12 -12 -12 -12 -12 -12 -13 -13 -13 -14 -14 -14 -13 -13 -13 -12 -13 -13 -13 -14 -14
11 11 9 8 7 7 9 11 9 7 7 9 10 11 11 11 10 11 10 9 10 10 8 5 6 8 6 1 -0 -0 -1 -1 -1 -1 -2 -2 -2 -3 -3 -3 -4 -4 -4 -4 -5 -5 -6 -6 -6 -7 -7 -8 -9 -9 -9 -10 -9 -10 -10 -11 -11 -12 -12 -12 -12 -13 -13 -13 -12 -12 -13 -13 -13 -14 -14 -14 -14 -14 -13 -13 -13 -14 -14 -14 -14 -14
12 12 10 10 9 7 8 12 12 10 10 10 10 11 12 11 11 11 10 9 9 9 7 5 7 7 3 -0 -0 -0 -1 -1 -1 -1 -1 -2 -2 -3 -3 -3 -3 -4 -4 -4 -5 -5 -6 -6 -6 -7 -8 -9 -9 -9 -10 -10 -10 -10 -11 -11 -12 -12 -12 -12 -13 -13 -13 -13 -13 -13 -13 -14 -14 -15 -15 -15 -15 -14 -13 -14 -14 -14 -15 -15 -15 -15
12 13 11 11 10 8 8 9 9 10 10 9 8 9 11 11 11 11 10 10 10 9 7 6 6 5 2 1 0 -1 -1 -1 -1 -1 -2 -2 -2 -2 -3 -3 -3 -4 -4 -4 -5 -5 -6 -6 -7 -8 -9 -9 -9 -10 -10 -10 -10 -11 -11 -12 -12 -12 -13 -13 -13 -13 -14 -13 -13 -14 -14 -14 -14 -15 -16 -15 -15 -14 -14 -14 -15 -15 -16 -16 -16 -16
11 12 10 8 7 8 9 7 6 8 10 8 7 9 10 10 10 9 8 7 7 8 7 5 3 1 -0 0 -0 -0 -0 -1 -1 -1 -2 -2 -2 -2 -2 -3 -3 -4 -4 -4 -5 -6 -6 -7 -8 -8 -9 -9 -10 -10 -11 -11 -11 -11 -12 -12 -12 -13 -13 -13 -14 -14 -14 -14 -14 -15 -14 -14 -15 -16 -16 -16 -16 -15 -15 -15 -16 -16 -17 -17 -17 -17
10 12 10 8 8 8 7 7 6 8 10 9 8 10 9 7 8 9 6 4 4 7 7 3 1 -1 -1 0 -0 -1 -0 -1 -1 -1 -2 -2 -2 -2 -2 -3 -3 -4 -4 -5 -5 -6 -6 -7 -8 -9 -9 -10 -10 -10 -11 -11 -11 -12 -12 -13 -13 -13 -13 -14 -14 -14 -14 -14 -15 -15 -15 -15 -16 -16 -16 -16 -16 -16 -16 -16 -16 -17 -17 -17 -17 -18
9 10 10 9 10 8 4 5 7 6 8 10 9 9 7 6 7 8 8 7 6 8 7 3 1 0 0 1 -1 -1 -0 -1 -1 -1 -2 -2 -2 -3 -3 -3 -3 -4 -5 -5 -6 -6 -7 -8 -8 -9 -10 -10 -11 -11 -11 -12 -12 -13 -13 -13 -14 -14 -14 -14 -15 -15 -15 -15 -15 -15 -15 -16 -16 -17 -17 -17 -17 -17 -17 -17 -17 -18 -18 -18 -18 -18
7 9 10 8 9 8 5 7 9 7 6 8 9 8 7 8 9 8 8 8 7 7 7 4 2 1 1 1 -1 -1 -0 -1 -2 -1 -2 -2 -2 -3 -3 -3 -4 -5 -5 -5 -6 -6 -7 -8 -9 -9 -10 -11 -11 -11 -12 -12 -12 -13 -13 -14 -14 -14 -15 -15 -15 -15 -15 -15 -16 -16 -16 -16 -17 -17 -17 -17 -17 -17 -18 -18 -18 -18 -18 -19 -19 -19
7 9 10 9 8 8 8 8 9 8 7 8 8 7 7 8 8 7 7 7 6 7 6 5 4 3 1 -0 -1 -1 -1 -2 -2 -2 -2 -2 -3 -3 -3 -3 -4 -5 -6 -6 -7 -7 -8 -8 -9 -10 -10 -11 -11 -12 -12 -12 -13 -14 -14 -14 -15 -15 -15 -15 -16 -16 -16 -16 -16 -16 -17 -17 -17 -18 -18 -18 -18 -18 -19 -19 -19 -19 -19 -19 -19 -19
7 8 9 10 9 8 8 7 6 6 7 8 8 8 7 7 7 6 6 6 6 7 6 5 6 3 -0 -1 0 -1 -1 -2 -2 -2 -2 -2 -3 -3 -4 -4 -5 -6 -6 -7 -7 -8 -8 -9 -9 -10 -11 -11 -12 -12 -12 -13 -14 -14 -14 -15 -15 -15 -16 -16 -16 -16 -16 -17 -17 -17 -17 -18 -18 -18 -18 -19 -19 -19 -19 -19 -19 -19 -19 -19 -20 -20
7 7 7 9 9 8 8 5 4 5 5 6 7 5 4 5 6 6 6 5 5 6 5 5 5 3 -1 -1 -0 -2 -1 -1 -2 -2 -3 -3 -3 -4 -4 -4 -6 -7 -7 -7 -8 -8 -9 -9 -9 -10 -11 -12 -12 -13 -13 -14 -14 -15 -15 -15 -16 -16 -16 -16 -16 -16 -17 -17 -17 -18 -18 -19 -19 -19 -19 -19 -20 -20 -20 -20 -20 -20 -20 -20 -20 -20
6 6 6 8 7 7 6 4 3 4 4 4 4 2 2 4 5 6 7 5 4 5 4 4 5 2 -2 -2 -1 -2 -2 -2 -2 -3 -3 -4 -3 -4 -5 -5 -6 -7 -7 -8 -8 -8 -9 -10 -10 -11 -12 -12 -13 -13 -13 -14 -15 -15 -16 -16 -16 -17 -17 -17 -17 -17 -17 -18 -18 -19 -19 -19 -19 -19 -20 -20 -20 -20 -20 -20 -20 -20 -20 -20 -20 -20
5 6 6 8 7 6 6 4 3 3 4 4 3 1 1 2 2 3 4 4 4 5 4 4 5 2 -2 -2 -2 -2 -2 -2 -2 -3 -4 -4 -4 -5 -5 -6 -7 -7 -8 -8 -8 -9 -10 -10 -11 -11 -12 -13 -13 -13 -14 -14 -15 -16 -16 -17 -17 -17 -17 -17 -17 -17 -18 -18 -19 -19 -20 -20 -20 -20 -20 -20 -21 -21 -21 -21 -20 -21 -21 -21 -21 -21
6 6 6 7 8 7 7 6 6 5 4 4 2 0 -1 -0 0 1 1 3 4 3 2 3 4 2 -2 -2 -2 -2 -3 -3 -3 -3 -4 -4 -5 -5 -6 -7 -7 -8 -8 -8 -9 -9 -10 -10 -11 -12 -13 -13 -14 -14 -14 -15 -16 -16 -17 -17 -17 -18 -18 -18 -18 -18 -19 -19 -19 -20 -20 -20 -20 -20 -21 -21 -21 -21 -21 -21 -21 -21 -21 -21 -22 -22
5 6 6 7 7 7 7 7 6 5 4 2 2 1 -0 -1 0 2 3 4 4 2 1 3 3 1 -2 -2 -2 -3 -3 -4 -4 -4 -4 -5 -5 -5 -6 -7 -8 -9 -9 -9 -9 -10 -10 -11 -11 -12 -13 -14 -14 -15 -15 -16 -16 -17 -17 -17 -18 -18 -18 -18 -18 -19 -19 -20 -20 -20 -20 -21 -21 -21 -21 -21 -21 -21 -21 -21 -21 -22 -22 -22 -22 -22
5 5 4 6 7 6 6 5 3 3 3 3 2 1 0 -1 -1 1 4 4 2 1 1 2 1 -0 -1 -2 -3 -3 -4 -4 -4 -4 -5 -5 -5 -6 -7 -8 -9 -9 -10 -10 -10 -10 -11 -12 -12 -13 -14 -14 -15 -15 -16 -16 -17 -17 -18 -18 -18 -18 -18 -19 -19 -19 -20 -20 -20 -21 -21 -21 -21 -22 -22 -22 -22 -22 -22 -22 -22 -22 -23 -23 -23 -23
6 6 3 4 5 4 3 2 1 1 2 1 1 0 -0 -0 0 2 2 1 0 1 2 1 -1 -0 -1 -3 -4 -4 -4 -5 -5 -5 -5 -6 -6 -7 -8 -9 -10 -10 -10 -10 -11 -11 -12 -12 -13 -14 -14 -15 -15 -16 -16 -17 -17 -18 -18 -18 -19 -19 -19 -19 -19 -20 -21 -21 -21 -21 -21 -22 -22 -22 -22 -22 -22 -22 -23 -23 -23 -23 -24 -24 -24 -24
6 6 2 2 3 2 1 1 1 1 0 -1 -1 -0 -1 -1 1 1 0 -0 -0 0 1 0 -1 -1 -2 -4 -5 -4 -5 -5 -5 -5 -6 -6 -7 -8 -9 -10 -11 -11 -11 -11 -12 -12 -12 -13 -14 -15 -15 -15 -16 -16 -17 -18 -18 -18 -19 -19 -19 -19 -19 -20 -20 -21 -21 -21 -22 -22 -22 -22 -22 -22 -22 -23 -23 -23 -23 -24 -24 -24 -24 -24 -24 -24
5 5 2 1 3 2 1 1 1 0 0 -1 -2 -1 -1 -1 -1 -0 -0 -1 -1 -1 -0 -1 -2 -2 -4 -5 -5 -5 -5 -5 -5 -6 -6 -7 -8 -9 -10 -11 -11 -12 -12 -12 -13 -13 -13 -14 -15 -15 -15 -16 -16 -17 -18 -18 -19 -19 -19 -19 -19 -20 -20 -20 -21 -21 -22 -22 -22 -22 -22 -23 -23 -23 -23 -23 -24 -24 -24 -24 -24 -25 -25 -25 -25 -25
5 5 2 1 4 4 1 0 0 0 1 0 -1 -2 -2 -1 -1 -1 -1 -1 -2 -1 -1 -3 -3 -3 -4 -5 -5 -5 -5 -6 -6 -6 -7 -7 -8 -10 -11 -11 -12 -12 -12 -13 -13 -13 -14 -15 -15 -15 -16 -16 -17 -18 -18 -19 -19 -19 -19 -20 -20 -20 -21 -21 -22 -22 -22 -22 -23 -23 -23 -23 -23 -23 -24 -24 -25 -25 -25 -25 -25 -25 -25 -25 -26 -26
4 4 2 2 6 6 1 1 1 -0 0 1 -0 -2 -2 -2 -1 -2 -2 -1 -2 -2 -3 -3 -3 -4 -5 -5 -5 -5 -6 -6 -7 -7 -8 -8 -10 -11 -12 -12 -12 -13 -13 -14 -14 -14 -15 -15 -16 -16 -17 -17 -18 -18 -19 -19 -20 -20 -20 -20 -20 -21 -21 -22 -22 -22 -23 -23 -23 -23 -23 -23 -24 -24 -25 -25 -25 -25 -25 -26 -26 -26 -26 -26 -26 -26
0 4 4 2 6 6 2 1 0 0 2 2 -0 -2 -3 -2 -2 -2 -2 -2 -3 -3 -3 -3 -3 -5 -5 -5 -6 -7 -7 -7 -8 -8 -8 -10 -11 -11 -12 -13 -13 -13 -14 -14 -14 -15 -15 -16 -16 -17 -17 -18 -18 -19 -19 -20 -20 -20 -20 -21 -21 -22 -22 -22 -23 -23 -23 -23 -23 -23 -24 -24 -25 -25 -25 -26 -26 -26 -26 -26 -26 -26 -26 -27 -27 -26
-1 3 3 0 4 7 4 1 1 3 5 3 -2 -3 -3 -3 -3 -3 -3 -3 -4 -4 -4 -4 -5 -6 -6 -6 -7 -7 -7 -8 -8 -8 -9 -11 -12 -12 -12 -13 -13 -14 -14 -14 -15 -16 -16 -16 -17 -17 -18 -18 -19 -19 -20 -20 -21 -21 -21 -21 -22 -22 -23 -23 -23 -23 -23 -24 -24 -24 -24 -25 -25 -26 -26 -26 -26 -26 -27 -27 -27 -27 -27 -27 -27 -27
3 3 2 -1 2 4 3 2 5 6 4 -1 -3 -3 -3 -3 -3 -3 -4 -5 -6 -6 -6 -6 -6 -6 -6 -7 -7 -7 -8 -8 -9 -9 -10 -11 -12 -13 -13 -13 -14 -14 -15 -15 -15 -16 -16 -17 -17 -18 -18 -19 -19 -20 -20 -21 -21 -21 -22 -22 -23 -23 -23 -23 -23 -24 -24 -24 -24 -25 -25 -26 -26 -26 -26 -26 -27 -27 -27 -27 -27 -27 -27 -27 -27 -27
5 4 2 1 2 3 2 3 5 4 -0 -3 -3 -3 -3 -3 -3 -3 -4 -5 -7 -7 -6 -7 -7 -7 -7 -7 -7 -8 -9 -9 -10 -10 -11 -12 -12 -13 -14 -14 -14 -15 -15 -15 -16 -17 -17 -17 -18 -18 -19 -20 -20 -21 -21 -21 -22 -22 -22 -23 -23 -23 -23 -24 -24 -24 -24 -24 -25 -25 -26 -26 -26 -26 -27 -27 -27 -27 -28 -28 -28 -28 -28 -28 -27 -27
3 4 3 2 2 2 2 2 2 1 -0 -2 -2 -3 -4 -3 -4 -4 -4 -5 -7 -7 -7 -7 -7 -7 -8 -8 -9 -9 -10 -10 -10 -10 -12 -12 -13 -13 -14 -14 -15 -15 -15 -16 -16 -17 -17 -18 -18 -19 -20 -20 -21 -21 -21 -22 -22 -22 -23 -23 -23 -24 -24 -24 -24 -24 -24 -25 -25 -26 -26 -27 -27 -27 -27 -27 -28 -28 -28 -28 -28 -28 -28 -28 -27 -27
0 2 3 3 1 -0 1 2 2 3 3 0 -3 -4 -4 -4 -4 -5 -5 -5 -7 -7 -7 -7 -8 -8 -9 -9 -10 -10 -11 -11 -10 -10 -12 -13 -13 -14 -14 -15 -15 -15 -16 -16 -17 -17 -18 -18 -19 -20 -20 -21 -21 -22 -22 -22 -23 -23 -23 -24 -24 -24 -24 -24 -24 -25 -25 -26 -26 -26 -27 -27 -27 -27 -28 -28 -28 -28 -28 -28 -28 -28 -28 -27 -27 -27
-0 -1 1 2 0 -1 1 2 2 3 3 -1 -3 -4 -4 -4 -5 -5 -4 -4 -6 -8 -7 -7 -8 -9 -9 -10 -11 -11 -12 -12 -11 -10 -11 -13 -14 -14 -15 -15 -16 -16 -16 -17 -18 -18 -18 -19 -20 -20 -21 -21 -22 -22 -22 -23 -23 -24 -24 -24 -24 -24 -25 -25 -25 -25 -26 -26 -27 -27 -27 -27 -28 -28 -28 -28 -28 -28 -28 -28 -28 -28 -28 -27 -27 -27
1 -0 -0 1 -0 -2 -1 1 2 2 1 -3 -4 -3 -4 -5 -5 -5 -2 -2 -6 -8 -7 -7 -9 -9 -10 -11 -11 -11 -12 -12 -12 -11 -12 -13 -14 -15 -15 -16 -16 -17 -17 -18 -18 -18 -19 -20 -20 -21 -21 -22 -22 -23 -23 -23 -24 -24 -24 -24 -25 -25 -25 -25 -25 -26 -26 -27 -27 -27 -28 -28 -28 -28 -28 -29 -29 -29 -28 -28 -28 -28 -27 -27 -27 -27
0 -1 -2 -1 -1 -2 -2 0 1 1 -1 -4 -4 -4 -5 -5 -5 -3 -1 -4 -7 -8 -7 -8 -9 -10 -11 -11 -11 -12 -12 -11 -12 -12 -12 -13 -15 -15 -16 -16 -17 -17 -18 -18 -18 -19 -20 -20 -21 -22 -22 -22 -23 -23 -23 -24 -24 -24 -25 -25 -25 -25 -25 -25 -26 -27 -27 -27 -28 -28 -28 -28 -28 -29 -29 -29 -29 -29 -28 -28 -28 -27 -27 -27 -27 -26
-0 -1 -3 -2 -1 -3 -3 -2 0 1 -2 -5 -4 -4 -5 -4 -3 -3 -4 -6 -7 -7 -7 -9 -10 -10 -11 -11 -12 -12 -12 -12 -13 -13 -13 -14 -15 -16 -16 -17 -17 -18 -18 -18 -19 -20 -21 -21 -22 -22 -22 -23 -23 -23 -24 -24 -25 -25 -25 -25 -25 -25 -26 -26 -26 -27 -27 -28 -28 -28 -28 -29 -29 -29 -29 -29 -29 -28 -28 -28 -28 -27 -27 -27 -27 -26
-1 0 -0 -1 -2 -3 -3 -2 1 2 -2 -5 -5 -3 -4 -3 -3 -5 -6 -7 -7 -7 -8 -10 -10 -11 -11 -12 -12 -13 -13 -14 -14 -14 -15 -15 -16 -16 -17 -17 -18 -18 -19 -19 -19 -20 -21 -22 -22 -23 -23 -23 -23 -24 -24 -25 -25 -25 -25 -25 -25 -26 -26 -27 -27 -27 -28 -28 -28 -29 -29 -29 -29 -29 -29 -29 -28 -28 -28 -28 -27 -27 -27 -27 -27 -26
-2 -0 1 -1 -2 -2 0 1 1 0 -3 -5 -4 -3 -4 -4 -5 -7 -7 -7 -7 -8 -9 -10 -11 -11 -12 -13 -13 -14 -14 -15 -15 -15 -15 -16 -16 -17 -18 -18 -19 -19 -19 -20 -20 -21 -22 -22 -23 -23 -23 -24 -24 -24 -25 -25 -25 -25 -25 -25 -26 -26 -27 -27 -27 -28 -28 -28 -29 -29 -29 -29 -29 -29 -29 -28 -28 -28 -28 -28 -28 -27 -27 -27 -27 -26
-1 -1 -0 -1 -2 -1 0 1 -0 -2 -4 -4 -4 -4 -4 -6 -7 -7 -7 -8 -8 -9 -10 -11 -11 -12 -13 -13 -14 -14 -15 -15 -15 -16 -16 -16 -17 -18 -18 -19 -19 -19 -20 -20 -21 -22 -22 -23 -23 -24 -24 -24 -24 -25 -25 -25 -25 -26 -26 -26 -26 -27 -27 -28 -28 -28 -28 -29 -29 -29 -29 -29 -29 -29 -29 -28 -28 -28 -28 -28 -28 -27 -27 -27 -27 -26
-2 -3 -3 -2 -2 -2 -2 -1 -2 -2 -3 -4 -5 -5 -6 -6 -7 -8 -8 -9 -9 -10 -11 -12 -12 -13 -14 -14 -15 -15 -15 -16 -16 -16 -16 -17 -18 -19 -19 -20 -20 -20 -21 -21 -22 -22 -23 -23 -24 -24 -24 -25 -25 -25 -25 -26 -26 -26 -26 -26 -27 -27 -28 -28 -28 -29 -29 -29 -29 -29 -29 -29 -29 -29 -29 -28 -28 -28 -28 -28 -28 -28 -27 -27 -27 -26
-3 -4 -3 -3 -2 -2 -1 -1 -2 -3 -3 -4 -5 -6 -7 -7 -7 -8 -9 -9 -10 -11 -12 -12 -13 -14 -14 -15 -15 -16 -16 -16 -17 -17 -17 -18 -19 -19 -20 -20 -20 -21 -21 -22 -22 -23 -23 -24 -24 -24 -25 -25 -25 -25 -26 -26 -26 -26 -27 -27 -27 -28 -28 -28 -29 -29 -29 -29 -29 -30 -29 -29 -29 -29 -29 -29 -28 -28 -28 -28 -28 -28 -27 -27 -27 -26
-2 -3 -3 -3 -3 -3 -1 -1 -3 -3 -3 -5 -6 -6 -7 -8 -8 -9 -10 -10 -11 -12 -13 -13 -14 -14 -15 -15 -16 -16 -17 -17 -17 -17 -18 -19 -20 -20 -20 -20 -21 -22 -22 -22 -23 -23 -24 -24 -24 -25 -25 -25 -25 -26 -26 -26 -26 -27 -27 -27 -28 -28 -28 -29 -29 -29 -29 -30 -30 -30 -30 -29 -29 -29 -29 -29 -29 -28 -28 -28 -28 -28 -27 -27 -26 -26
-3 -3 -2 -3 -3 -3 -2 -2 -3 -3 -4 -6 -7 -7 -8 -8 -9 -10 -11 -12 -12 -13 -13 -14 -15 -15 -16 -16 -16 -17 -17 -17 -18 -18 -19 -20 -20 -20 -21 -21 -22 -22 -22 -23 -23 -24 -24 -25 -25 -25 -25 -26 -26 -26 -26 -27 -27 -27 -27 -28 -28 -28 -29 -29 -29 -30 -30 -30 -30 -30 -30 -29 -29 -29 -29 -29 -29 -29 -28 -28 -28 -28 -27 -27 -26 -26
-3 -1 -2 -3 -2 -1 -1 -1 -3 -4 -4 -5 -6 -7 -9 -9 -10 -11 -11 -12 -13 -14 -14 -15 -15 -16 -16 -16 -17 -17 -18 -18 -18 -19 -20 -20 -21 -21 -21 -22 -22 -23 -23 -24 -24 -24 -25 -25 -25 -26 -26 -26 -26 -26 -26 -27 -27 -27 -28 -28 -28 -29 -29 -29 -30 -30 -30 -30 -30 -30 -30 -29 -29 -29 -29 -29 -29 -29 -29 -28 -28 -28 -27 -27 -26 -26
-1 1 -1 -2 -1 -0 -1 -1 -3 -4 -4 -4 -6 -8 -10 -11 -11 -11 -12 -13 -13 -14 -15 -16 -16 -16 -17 -17 -17 -18 -18 -19 -19 -20 -20 -21 -21 -21 -22 -22 -23 -23 -24 -24 -24 -24 -25 -25 -25 -26 -26 -26 -26 -27 -27 -27 -27 -27 -28 -28 -28 -29 -29 -29 -30 -30 -30 -30 -30 -30 -30 -30 -29 -29 -29 -29 -29 -29 -29 -29 -29 -28 -28 -27 -27 -26
Height
807 803 804 803 802 803 805 809 809 811 812 809 808 809 812 812 814 824 838 845 841 848 868 869 868 874 873 875 875 875 876 875 876 877 878 879 879 881 881 882 883 884 886 887 885 885 883 883 882 881 880 879 878 878 877 876 875 875 875 874 874 874 873 872 871 870 870 869 868 867 866 865 864 863 862 861 860 859 858 857 856 855 854 853 852 851
809 804 803 805 808 812 815 818 819 817 814 811 809 810 815 815 818 830 838 843 839 847 869 871 868 875 875 877 880 880 881 881 882 882 882 883 882 884 884 885 886 886 888 887 886 887 886 885 884 883 883 882 881 881 880 880 880 879 878 877 878 877 876 875 875 874 873 872 871 870 868 867 865 864 862 861 860 859 858 857 856 855 854 852 851 850
807 803 804 814 822 821 821 824 820 815 812 812 813 812 812 815 824 832 838 843 840 847 867 870 868 876 879 881 883 884 886 886 886 885 885 886 886 887 887 887 888 888 888 888 888 888 888 887 887 885 886 886 885 885 883 883 882 881 881 881 880 879 878 877 876 875 874 874 873 871 869 867 865 864 862 861 860 859 858 856 855 854 852 851 849 848
804 803 812 823 826 818 816 821 818 813 813 812 814 811 809 818 819 819 835 848 843 847 861 865 869 875 878 884 887 886 888 889 888 888 887 888 889 890 891 891 890 891 891 891 891 891 890 889 889 888 888 889 887 886 885 885 884 884 884 884 882 881 879 878 877 876 876 874 872 870 868 866 864 863 861 860 858 857 856 854 853 852 850 849 848 847
802 811 826 826 822 817 811 815 814 810 810 811 814 809 806 816 816 818 837 847 848 855 856 856 867 877 878 882 889 889 888 890 889 890 890 890 892 892 892 893 893 894 893 893 893 893 893 891 891 892 891 890 888 888 888 888 888 887 886 885 884 882 880 879 877 876 875 873 869 867 864 862 861 859 858 856 855 854 853 852 850 850 849 848 847 846
807 821 829 818 816 818 810 810 812 809 810 809 812 815 811 812 818 831 839 837 848 859 851 842 843 862 876 879 888 890 889 893 892 891 893 893 894 894 894 895 895 896 895 895 896 895 895 895 894 893 892 891 890 891 891 890 889 888 887 885 883 882 880 878 877 876 874 872 869 866 864 862 861 861 860 859 857 855 854 852 851 849 848 847 846 845
814 823 825 815 811 814 809 808 814 816 811 806 815 826 822 817 821 833 833 824 831 838 840 837 826 846 876 878 884 892 890 895 894 893 895 895 896 896 896 897 896 897 897 897 897 897 897 896 895 894 893 893 893 893 893 891 890 888 886 885 883 882 881 879 878 876 874 872 870 869 867 867 866 865 864 863 861 858 855 853 851 849 848 846 845 844
817 816 816 814 810 810 808 809 818 821 810 808 824 829 820 818 819 824 823 816 821 826 833 843 832 839 867 873 879 889 890 895 896 895 897 896 898 898 897 899 898 898 898 898 898 898 898 897 896 896 896 896 895 894 893 891 890 888 886 885 884 883 882 880 879 877 875 873 872 870 870 869 868 867 865 862 860 858 855 853 850 849 847 846 845 844
820 813 812 814 811 811 812 815 825 824 813 815 831 832 824 822 819 822 822 818 829 829 824 840 840 830 851 875 882 884 888 895 897 897 898 898 898 899 899 900 899 900 899 899 899 899 899 899 898 898 898 897 896 895 893 892 891 889 888 886 885 884 882 881 879 877 876 874 873 872 871 869 868 867 864 861 859 856 854 852 850 848 847 845 845 843
821 820 821 819 813 814 818 824 830 824 817 824 834 834 831 831 830 830 827 823 832 829 818 833 837 821 841 877 884 878 884 893 897 898 897 898 899 899 900 900 900 900 900 900 900 900 900 900 899 899 898 897 896 895 894 893 891 890 888 887 885 884 882 881 880 878 876 875 874 872 871 869 867 865 862 860 857 855 853 851 849 848 846 844 843 841
824 827 827 825 821 822 825 830 836 830 827 832 831 827 827 831 833 834 835 833 830 825 822 836 840 823 832 863 878 879 882 887 894 898 897 898 899 899 900 901 901 900 900 901 901 900 900 900 900 899 898 897 896 896 894 893 892 891 889 888 886 885 884 882 881 879 877 875 874 873 871 869 867 865 863 860 857 855 853 851 849 847 845 843 841 839
823 822 823 828 829 829 826 827 835 837 835 832 824 819 820 822 827 829 833 833 825 819 827 844 847 829 830 859 882 886 885 888 892 896 897 898 899 900 900 900 901 900 901 901 900 901 901 900 900 899 898 898 897 896 894 893 893 891 890 889 887 886 884 883 881 879 878 876 875 873 872 870 868 866 864 861 858 855 853 851 849 847 844 842 840 838
816 819 825 829 830 832 824 818 824 830 830 825 819 817 813 814 819 815 819 829 824 818 833 847 840 831 850 880 890 889 889 890 892 894 896 897 898 900 900 900 901 900 900 901 901 901 901 900 900 899 899 898 897 896 895 894 893 892 891 890 888 886 885 883 882 880 878 876 875 874 872 870 869 867 864 861 858 856 854 851 849 846 844 841 839 836
815 817 824 823 824 832 826 816 815 819 821 819 819 818 812 815 820 812 817 829 823 820 840 851 838 840 871 891 890 890 891 891 893 895 895 896 898 899 900 900 900 900 900 901 901 901 901 901 900 900 900 899 898 897 896 895 894 893 891 890 889 887 886 884 882 881 878 877 876 874 872 870 868 866 864 861 858 856 853 851 849 846 844 841 837 835
823 814 820 821 822 829 828 826 826 823 823 827 830 825 817 817 819 817 816 816 817 824 837 842 840 851 874 885 889 892 892 892 894 895 896 896 897 898 899 900 900 900 900 900 901 902 901 901 901 901 900 899 899 898 897 896 894 893 892 891 889 888 886 885 882 881 878 877 875 873 871 870 868 865 862 860 857 855 853 850 848 845 843 840 836 834
832 819 825 832 833 832 829 833 838 829 822 831 837 826 820 822 821 828 836 839 840 835 835 850 868 883 889 889 892 892 890 893 893 894 897 897 898 899 898 899 900 900 901 901 902 902 902 902 901 901 901 900 899 898 897 896 894 893 892 891 889 887 886 884 881 879 877 876 874 872 870 868 866 864 861 858 856 854 852 849 846 843 841 838 835 832
835 823 826 833 834 834 835 835 838 832 820 826 832 823 828 837 830 831 846 861 859 838 839 866 884 895 896 888 892 893 890 894 893 894 897 897 898 899 898 899 900 900 901 901 902 902 902 902 902 902 901 900 899 898 897 896 894 893 892 890 888 886 885 882 880 878 876 874 872 870 868 866 864 862 859 857 854 852 850 847 844 841 838 836 833 830
846 832 827 831 827 831 844 840 834 838 831 826 827 827 835 841 834 831 833 842 845 834 839 863 878 889 886 879 890 895 891 895 895 894 897 897 898 899 899 899 899 900 901 901 902 903 902 903 902 902 901 900 900 899 897 896 894 893 891 890 888 885 883 881 879 877 874 873 870 868 866 864 862 859 857 855 852 849 847 844 841 838 835 833 831 828
854 840 828 833 832 831 841 837 829 836 838 832 831 834 836 831 829 834 833 833 842 840 840 858 877 884 878 878 893 894 889 895 896 895 897 898 899 900 899 899 899 901 902 901 903 903 902 903 902 901 901 900 899 898 896 895 894 892 891 889 887 884 882 880 877 875 873 871 869 866 865 862 860 858 855 852 850 847 844 841 839 836 833 830 828 825
855 846 832 832 836 834 833 833 834 837 838 834 834 837 839 837 836 842 842 843 848 845 844 853 858 865 877 886 889 889 891 896 897 897 898 898 899 901 900 900 900 901 902 902 903 903 903 903 902 901 900 899 899 897 895 894 892 891 889 887 886 883 881 878 876 874 871 870 868 865 863 861 858 855 853 850 848 844 842 839 836 833 830 827 825 822
854 850 840 831 833 836 837 844 851 850 846 839 836 840 845 846 845 848 850 851 850 845 850 854 846 859 887 889 884 891 895 895 898 898 898 899 899 901 901 900 901 902 903 903 903 903 903 902 901 901 900 899 898 896 894 893 891 890 888 886 884 881 879 876 874 872 870 868 866 864 861 859 856 853 851 848 846 843 840 837 834 831 828 825 822 819
856 856 854 842 836 839 846 857 860 857 856 851 848 856 863 858 850 848 849 854 855 849 854 857 848 864 892 890 887 895 893 894 899 898 899 901 900 901 902 901 902 903 904 903 903 903 902 902 901 900 899 898 896 894 893 891 890 888 886 884 882 880 877 875 872 870 868 866 864 862 859 856 853 851 849 846 843 840 837 834 831 829 826 822 819 816
864 864 860 849 847 850 854 862 864 861 861 860 862 871 874 866 857 851 847 853 859 856 859 862 854 870 896 896 892 896 894 897 899 898 901 902 900 901 902 901 903 903 903 903 903 902 902 901 900 898 898 896 894 893 891 890 888 887 885 883 880 878 876 873 871 869 867 864 862 860 857 854 852 849 846 843 840 837 835 832 829 826 823 820 816 813
864 865 860 849 849 854 855 860 864 863 861 860 868 880 881 876 873 868 864 865 863 858 862 862 856 871 895 897 894 897 898 898 898 900 903 901 900 902 901 901 903 902 903 903 902 902 901 900 899 897 896 895 893 892 890 889 888 885 884 881 879 877 874 872 870 868 865 863 860 858 855 852 850 847 844 841 838 835 832 829 827 824 821 817 813 810
860 862 861 853 850 851 851 852 853 855 861 868 876 886 889 887 884 880 877 872 864 867 874 867 859 874 894 897 896 899 899 900 900 901 901 901 902 901 900 902 903 902 903 902 901 901 900 899 898 896 896 895 893 891 890 888 887 885 883 880 878 875 873 871 869 866 864 861 858 856 853 850 848 845 842 839 836 833 830 827 824 821 817 814 810 807
864 865 864 857 857 860 855 854 857 862 870 877 881 887 889 889 884 875 867 861 861 876 885 873 867 881 896 898 897 900 901 902 901 900 901 902 901 901 902 903 903 903 903 902 901 900 899 898 897 896 896 894 892 891 889 887 886 884 881 879 877 874 871 869 867 865 862 859 856 853 850 848 845 842 839 836 833 830 827 824 821 817 814 811 807 803
868 871 873 864 861 865 863 865 876 879 877 876 881 885 888 892 891 878 866 867 877 884 881 878 883 887 892 898 900 901 903 903 902 902 901 901 901 901 903 903 903 904 903 902 902 900 899 898 897 896 895 893 892 890 888 886 884 882 880 877 875 873 870 868 865 863 861 858 855 851 848 846 843 840 836 833 830 827 824 821 817 814 810 807 804 800
863 866 879 877 871 877 881 882 887 886 883 886 889 890 891 891 886 879 877 883 891 886 875 881 893 890 890 902 906 904 905 904 903 903 902 902 902 902 903 904 904 904 903 903 901 900 899 897 896 896 894 892 891 888 887 886 883 881 879 876 873 871 869 867 864 862 859 856 853 849 846 843 840 837 834 831 828 824 820 817 813 810 807 803 800 797
864 866 884 885 878 886 891 889 888 888 891 897 897 895 897 895 887 886 890 893 896 891 882 885 893 893 897 907 908 906 906 905 904 904 903 903 902 902 904 905 904 904 903 902 901 900 898 897 896 895 892 891 889 887 886 884 882 880 877 874 872 870 868 865 863 860 857 854 851 848 844 841 838 835 832 828 825 821 817 814 810 806 803 800 797 794
870 870 886 888 879 884 891 890 890 891 892 898 902 900 900 899 895 895 895 896 898 896 892 893 896 898 904 910 909 906 905 905 905 904 903 902 902 904 905 905 905 904 903 902 901 899 898 897 895 893 892 890 888 887 885 882 880 878 875 873 871 868 866 864 861 858 855 852 849 846 843 839 836 832 829 825 822 818 814 810 807 804 800 797 794 791
868 870 889 891 874 876 891 893 891 892 890 893 900 904 903 900 899 899 898 899 900 896 897 901 900 900 906 908 907 905 905 905 904 903 903 902 903 905 906 906 905 904 903 902 900 898 897 896 894 892 891 889 887 886 884 881 879 877 874 872 869 867 865 862 859 856 853 850 847 844 840 837 833 830 826 823 819 815 811 807 804 800 797 793 790 787
874 873 887 886 863 864 888 890 888 895 894 891 897 904 906 903 901 902 901 900 902 902 902 902 899 902 907 906 905 906 905 905 904 903 903 902 904 906 906 906 905 903 902 901 898 897 897 895 893 892 890 888 887 885 883 880 878 875 873 870 868 866 863 860 858 854 851 848 845 841 838 834 830 827 823 819 816 811 808 804 801 797 793 790 787 783
895 879 881 887 867 860 881 891 893 892 878 878 897 908 909 907 905 905 903 901 904 906 903 900 901 906 908 906 907 907 905 905 905 903 903 903 905 906 905 905 905 903 902 900 898 897 896 894 893 891 889 888 886 884 882 879 877 874 872 869 866 864 861 858 856 853 849 847 843 840 837 833 829 825 820 817 813 809 806 802 798 795 791 787 784 780
901 884 886 899 879 860 874 889 888 873 859 875 904 912 908 908 907 907 905 903 906 907 906 906 908 909 908 908 909 907 905 906 905 903 903 905 906 906 905 905 903 902 901 899 898 897 895 894 892 890 889 887 885 883 881 878 876 873 870 868 865 862 860 857 854 851 848 844 841 838 835 830 827 823 818 815 811 807 804 800 796 792 789 785 781 777
885 883 892 904 891 875 882 881 861 850 867 897 911 909 908 908 907 907 906 909 913 911 910 912 911 909 909 909 908 907 906 906 904 903 904 905 906 906 904 903 902 901 900 898 897 896 894 892 891 889 888 885 883 882 879 876 874 871 869 866 863 860 858 855 852 849 845 842 839 836 832 828 824 819 815 812 808 804 800 796 793 789 785 782 778 773
879 881 890 898 892 883 887 883 864 867 894 911 908 907 909 907 906 906 904 909 915 913 912 914 912 910 910 909 908 908 907 906 904 903 904 905 905 905 904 903 902 901 899 898 896 895 893 892 890 888 886 884 882 880 877 875 872 869 866 864 861 858 856 852 849 846 843 840 836 833 829 825 821 816 812 808 804 800 796 792 789 785 781 777 773 769
887 883 884 889 892 892 893 891 884 884 895 903 906 911 912 909 911 911 906 908 913 913 912 913 911 911 910 909 909 909 908 906 902 901 903 904 904 904 904 903 902 900 899 898 896 895 893 891 889 887 885 883 881 878 876 873 870 867 864 861 858 856 852 849 846 843 840 837 833 829 826 822 818 813 809 805 801 797 792 789 785 781 777 773 768 765
894 891 884 883 897 907 898 889 883 875 875 893 909 913 911 910 912 914 912 909 911 912 911 910 911 911 910 910 910 909 908 905 900 900 903 904 903 904 903 902 902 900 898 897 895 894 892 890 888 886 884 881 879 877 874 871 868 865 862 858 856 853 850 847 843 840 837 834 830 827 823 819 816 811 806 802 798 794 789 786 782 778 774 770 765 761
897 902 898 890 902 914 902 889 887 879 878 898 911 910 909 910 910 914 909 901 906 912 909 908 912 910 909 911 910 910 910 906 900 899 901 903 903 903 902 901 900 899 897 896 895 892 891 889 887 885 883 880 878 875 872 870 867 863 860 857 855 851 848 845 842 838 835 832 828 825 821 817 813 809 805 800 795 791 787 783 779 775 771 767 762 757
897 902 902 896 907 922 913 898 893 887 890 905 911 907 908 909 911 910 894 887 904 913 907 907 911 909 910 911 910 910 911 908 902 899 900 902 902 901 902 900 899 898 896 895 893 892 890 888 886 883 881 879 876 874 872 869 866 863 860 857 853 851 848 844 841 838 834 830 826 822 818 815 810 806 802 797 792 788 784 780 776 772 768 763 759 755
906 911 916 912 913 922 919 905 894 889 897 909 909 907 909 909 907 901 890 892 907 909 905 908 910 908 910 910 909 910 909 906 904 901 901 902 901 900 901 900 898 897 895 893 892 891 888 887 885 882 880 877 875 873 870 867 864 862 859 856 853 850 847 843 840 836 832 828 824 820 816 812 808 803 799 795 790 785 781 777 774 769 765 761 756 752
910 915 921 918 915 922 927 916 898 890 900 911 909 905 907 906 900 896 897 903 906 904 905 908 908 908 909 909 909 909 905 904 904 903 902 902 901 899 899 898 896 895 894 892 891 889 887 885 883 881 878 876 873 870 868 865 862 859 857 854 851 848 845 842 838 834 830 825 821 817 813 809 805 801 796 792 787 783 778 774 771 766 762 758 753 749
914 909 909 913 917 923 925 913 894 886 899 911 908 903 904 903 900 901 904 905 904 904 906 907 907 908 908 907 908 907 904 904 904 902 902 901 900 900 898 896 895 894 892 891 889 888 886 883 881 879 876 874 871 869 866 863 860 857 855 852 849 846 842 839 835 831 827 823 818 814 810 806 802 798 794 790 785 781 776 772 768 763 759 755 751 746
918 911 906 913 920 916 906 896 890 891 901 908 906 903 903 903 903 906 906 905 904 905 906 906 907 907 906 907 907 905 904 904 902 902 902 900 899 899 897 895 895 893 891 890 888 886 885 882 880 878 874 872 870 867 864 862 858 855 853 849 847 843 839 836 833 828 824 820 816 812 807 803 799 795 792 788 783 779 774 770 765 760 756 753 749 744
911 911 909 912 915 912 901 892 893 898 903 905 904 903 903 903 905 906 906 905 905 904 906 907 906 906 906 906 905 904 903 903 902 901 901 899 899 898 896 895 894 892 890 889 887 886 884 881 879 876 873 871 869 865 863 861 857 854 851 848 845 841 837 833 830 825 821 817 813 809 805 801 797 793 790 786 782 778 772 767 763 758 754 750 747 742
914 917 916 915 913 910 902 896 897 899 900 902 903 902 903 904 904 905 905 905 905 904 905 906 905 905 906 905 904 904 902 902 902 901 900 899 899 897 896 895 893 891 890 888 886 884 882 879 877 875 872 869 867 864 862 859 857 854 850 846 843 840 836 832 827 823 819 814 810 807 803 798 794 791 787 784 780 776 771 767 763 758 752 749 745 741
917 917 917 915 913 908 898 893 898 899 897 900 902 901 903 904 903 905 905 904 905 905 905 905 905 905 905 904 903 903 901 901 901 900 899 899 898 896 895 893 892 891 888 886 885 883 880 878 876 873 870 867 865 862 860 857 855 853 849 845 842 838 834 831 826 821 817 812 808 804 801 797 793 789 785 782 777 773 769 765 761 757 752 748 744 740
911 915 914 913 913 909 897 892 897 898 896 899 901 900 903 903 902 904 904 903 904 904 904 904 904 903 903 903 902 902 901 901 900 899 899 899 897 895 894 892 890 889 887 885 884 881 879 877 874 871 869 866 863 861 858 855 853 850 847 844 840 836 832 829 825 820 815 811 807 803 799 796 792 788 784 780 777 772 767 762 758 754 750 747 744 740
911 911 910 910 910 906 897 893 897 896 895 899 901 900 902 902 902 903 903 903 904 903 903 903 903 902 902 901 901 901 900 899 899 899 898 897 895 894 893 891 889 888 885 884 882 880 878 876 873 870 868 864 862 859 856 853 851 848 846 842 838 835 831 826 822 818 813 809 806 802 798 795 791 787 783 779 776 773 769 764 760 754 749 746 743 740
909 904 906 910 906 899 893 892 895 896 894 895 897 899 900 900 901 902 902 902 903 902 902 902 901 901 901 900 900 900 899 898 898 898 897 896 894 893 891 889 888 885 884 882 880 878 877 874 871 869 866 862 860 857 854 852 849 846 844 841 837 834 830 825 820 816 811 808 804 800 797 793 789 786 782 778 774 770 766 764 761 757 752 746 742 739
899 894 898 901 896 891 889 890 895 897 894 892 895 897 899 899 900 901 901 901 901 901 901 901 900 900 900 899 899 899 898 897 897 896 895 894 892 891 890 888 886 884 882 880 878 876 874 871 869 867 863 861 858 856 853 850 847 844 842 839 835 832 829 825 820 815 810 807 803 799 797 793 788 785 781 777 774 769 764 759 755 753 750 746 741 735
Wind_Speed
2 1 2 4 5 6 6 6 5 4 3 3 4 4 3 4 2 0 3 2 5 10 6 5 9 7 5 4 5 5 6 9 10 10 10 9 10 9 10 11 11 11 11 15 21 24 26 27 28 30 32 35 38 38 39 39 39 37 36 36 36 35 33 32 31 29 28 27 26 24 24 23 22 21 21 20 20 20 20 20 20 20 21 21 20 20
3 1 5 7 7 6 4 4 4 4 3 3 3 3 1 3 1 1 3 1 1 7 3 4 9 7 5 5 6 7 8 8 8 9 9 9 10 9 10 11 10 9 10 16 20 22 25 26 27 28 30 32 33 34 36 36 36 35 34 33 33 34 33 32 30 28 26 25 24 22 22 22 20 19 21 20 21 22 22 23 23 23 23 23 23 23
3 3 7 6 4 2 2 3 4 3 3 3 1 3 1 2 3 2 3 4 3 6 4 4 8 6 4 7 7 7 8 7 6 8 8 9 10 9 9 9 9 9 10 14 18 20 23 25 26 27 27 27 27 29 32 34 36 34 31 29 31 33 33 31 29 27 23 21 23 22 21 21 18 17 19 20 21 23 25 26 26 27 27 26 26 25
2 4 4 2 4 4 3 3 4 3 2 2 2 3 2 2 3 2 2 4 5 5 8 8 8 5 5 7 7 6 6 6 6 8 8 8 10 10 9 9 9 10 10 11 14 17 20 23 25 26 25 25 26 28 30 33 34 32 28 26 27 30 32 31 28 25 21 21 26 27 25 24 21 18 19 21 23 26 29 30 31 31 30 28 26 24
4 3 1 3 2 3 2 2 4 4 2 2 3 4 3 3 2 3 4 4 7 6 8 11 7 2 4 6 5 4 4 6 6 7 9 8 8 9 9 10 10 10 10 10 12 15 19 21 22 22 23 25 27 26 25 27 29 28 27 28 27 28 31 31 29 26 22 25 30 30 29 29 27 23 25 28 30 34 35 34 34 33 30 27 25 22
5 3 1 2 4 3 2 1 2 4 1 4 2 4 5 5 5 9 9 5 6 1 6 6 3 1 3 5 6 3 4 7 5 7 9 8 7 8 8 9 9 9 10 12 12 14 17 18 18 21 24 25 25 24 22 23 25 27 28 31 32 31 31 32 30 27 25 28 29 27 26 25 24 22 24 26 28 31 31 30 31 31 28 26 22 20
2 2 2 3 4 5 3 1 3 3 3 2 1 3 4 6 9 11 9 3 3 3 6 5 3 2 3 4 6 5 6 6 5 7 7 6 7 7 7 7 7 8 9 11 13 15 16 17 18 20 22 23 23 23 21 21 25 28 30 33 35 33 30 30 28 27 28 28 26 23 20 19 20 19 21 23 25 27 27 28 29 28 27 24 21 20
1 3 5 5 5 5 3 2 1 4 5 1 2 3 4 6 7 9 7 3 3 1 1 3 3 2 3 4 7 8 7 6 6 7 5 5 6 7 7 7 7 7 7 8 10 14 16 16 17 17 18 19 21 22 23 23 24 27 29 32 35 33 30 27 25 26 29 27 23 20 18 20 21 19 21 25 27 29 29 29 28 26 26 23 18 18
1 3 4 4 5 3 1 2 2 3 2 2 2 3 2 3 3 5 5 3 0 1 1 4 4 1 2 3 6 7 6 5 4 5 4 5 5 5 6 6 7 7 7 9 10 11 14 14 15 14 14 16 18 21 24 23 21 22 25 29 33 32 29 27 26 28 30 27 22 17 18 23 23 21 24 27 30 32 30 27 26 25 24 20 17 19
1 1 1 3 3 1 2 2 1 2 0 1 4 4 4 4 3 3 4 2 3 1 4 6 6 3 2 3 6 4 4 5 4 4 3 4 4 4 5 5 6 5 6 8 10 11 12 13 13 12 13 15 17 20 24 24 20 21 26 30 33 31 28 26 26 28 30 27 21 17 21 27 27 25 27 30 31 31 28 24 24 22 20 19 20 25
2 1 1 2 2 1 1 0 0 1 1 3 4 4 4 4 4 3 2 3 3 2 5 5 4 2 1 3 4 1 2 6 7 4 3 4 4 4 4 4 5 4 4 6 8 10 11 12 12 12 13 16 18 20 24 25 20 19 24 27 29 28 25 24 25 27 27 25 20 17 23 29 28 25 27 29 29 29 26 23 22 20 20 22 26 32
4 3 1 1 1 1 2 1 1 1 2 3 2 3 2 3 3 3 4 3 2 4 5 3 1 3 2 1 2 2 2 7 7 5 5 4 4 4 4 4 4 4 4 4 6 8 10 11 11 11 12 14 17 20 23 24 18 18 22 24 25 26 24 24 26 27 26 25 20 18 24 28 23 22 26 27 26 25 23 21 20 20 22 26 30 35
4 1 2 2 1 2 2 1 2 3 4 3 1 3 2 3 3 2 3 0 2 4 3 2 1 2 2 0 2 3 5 6 5 6 5 4 4 4 4 3 3 3 4 4 6 7 9 10 10 11 11 13 17 19 21 23 18 17 21 22 23 24 23 23 26 27 26 23 18 18 25 24 19 22 27 25 23 22 20 19 18 20 25 30 31 31
4 4 4 3 1 2 3 2 3 3 3 3 1 2 1 1 2 3 3 2 3 2 1 2 1 1 1 1 1 3 5 5 5 6 4 4 4 4 4 4 3 4 4 4 5 7 9 10 9 10 11 12 15 17 19 21 17 16 21 21 20 21 20 20 23 23 23 20 15 19 23 19 17 25 26 22 21 21 18 17 20 25 30 30 27 25
2 4 4 3 2 3 4 2 1 0 2 2 2 4 2 2 1 3 3 2 4 2 2 3 1 1 0 2 2 3 3 4 6 6 5 5 4 4 4 3 3 3 3 4 5 7 9 9 9 10 11 12 14 16 19 21 18 16 20 19 17 19 19 19 21 22 21 17 16 22 22 15 18 26 24 20 21 20 18 20 25 29 29 25 22 22
1 4 4 2 2 2 3 1 1 2 2 1 2 3 1 2 3 1 3 3 2 2 3 2 1 0 1 2 1 3 4 5 5 5 6 6 5 4 2 2 3 2 2 3 4 6 8 9 8 9 11 12 14 17 19 20 18 16 18 18 17 19 19 20 22 22 19 16 19 23 19 14 21 26 22 20 21 20 20 22 25 26 24 22 21 22
2 4 4 3 2 2 1 2 1 2 1 0 1 0 2 2 5 2 1 1 2 1 2 1 2 1 1 1 2 4 5 5 4 3 5 5 4 5 3 1 2 2 2 3 4 6 8 8 8 9 11 13 17 18 19 19 16 16 19 19 19 20 20 22 23 21 19 18 21 21 16 16 22 24 22 21 22 22 22 23 23 23 23 22 22 23
1 4 5 2 1 1 1 0 2 2 1 2 1 2 1 1 4 3 1 3 3 0 2 0 3 2 2 1 3 6 5 5 3 2 3 4 3 4 5 2 2 3 3 3 5 7 8 7 8 10 11 14 16 16 18 17 15 17 19 19 20 21 21 23 23 20 19 19 20 20 17 18 23 24 23 23 23 24 25 24 23 24 25 24 24 25
2 2 6 1 1 4 2 2 2 4 2 2 0 1 2 2 1 2 2 2 2 2 3 1 1 3 2 2 6 7 5 4 3 3 3 2 2 4 6 5 1 3 3 3 5 7 7 6 8 10 10 13 16 17 17 15 14 18 19 18 19 21 21 22 21 20 19 19 20 20 19 21 24 25 24 23 23 25 26 25 25 25 26 26 26 27
1 1 4 4 2 4 4 4 3 5 5 4 3 3 3 3 2 1 1 1 1 2 3 2 1 1 1 0 5 7 4 4 3 3 3 3 3 4 7 6 2 3 4 4 5 6 7 7 9 9 11 15 17 17 16 14 15 18 18 19 20 21 21 21 21 19 18 19 20 21 21 23 25 25 24 24 25 26 26 26 27 27 27 27 28 29
2 2 2 6 4 3 3 3 2 3 4 4 4 4 4 1 0 0 1 1 1 1 1 2 3 1 1 2 4 6 5 5 4 3 4 5 4 5 7 6 2 3 4 4 5 5 8 10 10 9 12 15 15 16 15 13 16 17 17 20 21 21 22 22 21 19 18 20 21 22 24 26 27 25 24 25 26 26 26 27 27 27 27 28 29 29
2 1 1 5 5 3 1 2 2 2 0 2 2 2 2 2 1 2 1 1 1 0 2 1 3 1 2 2 3 5 4 4 5 4 4 6 5 5 7 4 3 3 3 5 5 5 9 13 11 10 12 14 15 17 15 13 15 17 18 21 21 21 22 22 21 19 19 21 22 23 27 28 26 25 25 26 27 26 27 28 27 27 28 31 31 30
1 2 1 4 3 2 3 3 1 2 5 6 4 2 0 0 2 2 1 2 1 2 0 1 1 2 0 2 3 5 4 4 5 5 4 6 5 5 6 2 4 3 5 6 6 6 10 13 12 10 12 14 16 17 15 14 16 18 19 21 21 22 23 23 20 20 21 23 23 26 28 27 25 26 27 28 28 28 28 29 29 29 30 33 33 32
1 3 2 4 4 3 4 3 1 2 5 5 3 3 2 2 1 2 3 1 1 2 2 2 2 3 1 1 3 5 4 4 5 5 5 5 5 6 5 2 3 4 5 6 6 7 11 13 11 10 12 15 17 17 16 17 18 18 20 22 22 23 24 22 21 22 23 23 25 27 28 27 28 29 29 28 28 29 30 29 30 32 33 34 33 32
2 1 2 3 5 6 6 5 4 3 3 3 2 3 2 2 3 1 1 2 1 1 2 1 3 2 2 3 3 5 5 4 4 4 5 5 6 7 5 2 3 4 5 7 8 9 12 13 12 11 13 16 17 17 17 17 18 19 21 22 23 24 23 21 22 24 23 24 27 29 29 29 30 30 30 30 29 29 30 31 33 35 35 33 33 34
1 1 2 3 2 3 4 4 4 4 3 2 2 4 4 3 4 2 1 2 1 1 2 1 3 1 2 4 2 4 6 6 6 6 6 6 7 7 3 2 4 5 6 8 9 10 13 14 13 12 14 16 17 17 18 18 19 20 21 22 23 23 22 22 23 23 24 27 29 30 29 30 30 31 31 30 29 29 31 33 35 35 33 31 33 35
3 2 2 4 4 3 4 4 3 3 2 2 4 6 6 4 3 2 2 2 0 1 3 1 2 2 0 3 2 6 7 7 7 8 8 7 9 7 2 3 5 5 7 9 9 11 13 13 12 12 15 17 17 18 18 18 20 22 23 24 24 22 21 22 23 23 26 29 29 28 29 30 30 31 30 28 28 31 33 34 35 34 32 30 32 33
4 3 3 3 3 3 3 3 3 3 2 1 3 5 7 7 5 6 4 1 1 2 3 2 0 3 1 3 5 6 7 7 8 9 8 8 9 6 2 4 6 6 7 8 9 10 11 11 11 13 16 17 18 18 18 19 21 22 22 23 22 21 20 22 23 25 28 29 27 28 29 30 30 29 28 28 30 33 34 33 32 32 30 30 30 30
5 2 2 1 2 3 1 2 2 2 3 2 3 4 6 7 7 6 3 0 3 1 4 4 3 3 1 3 5 6 6 7 9 8 8 9 8 4 3 5 6 6 8 9 9 10 10 10 12 15 17 18 18 18 19 20 20 21 22 22 21 20 21 22 24 27 28 27 27 28 29 30 29 28 28 29 30 32 32 31 31 30 30 29 29 29
4 1 1 1 2 2 3 4 2 4 3 2 4 4 5 5 5 4 1 0 2 3 6 4 6 4 0 2 4 5 5 6 7 7 8 10 7 4 4 5 6 7 8 9 10 10 9 10 13 16 18 18 17 18 19 21 21 22 23 22 21 21 21 24 26 27 27 26 27 28 29 29 29 29 29 29 30 31 31 31 31 30 30 30 30 30
3 3 1 2 2 4 3 4 4 4 4 3 3 5 6 5 4 4 2 2 3 5 5 5 6 5 1 2 5 5 5 7 7 8 10 9 4 3 4 5 6 8 8 9 10 10 10 12 15 17 18 17 17 18 20 21 22 23 22 21 21 22 24 26 27 27 27 27 29 29 29 29 30 31 30 29 30 31 31 31 31 30 31 31 31 31
4 3 2 4 4 5 3 3 2 1 4 4 3 6 7 5 3 2 2 1 2 5 6 6 5 3 1 4 6 6 7 9 8 9 10 6 3 3 4 5 7 8 8 10 10 9 10 13 15 17 17 16 17 19 21 22 23 22 22 22 22 24 26 27 27 27 27 28 29 29 29 30 32 32 30 30 31 31 31 31 31 31 31 31 32 32
2 2 2 4 3 4 4 3 2 1 3 3 3 4 4 3 2 2 4 4 3 3 4 4 3 2 4 7 7 8 9 9 8 9 9 4 3 5 5 5 7 8 8 10 9 8 11 14 16 16 16 16 18 20 22 23 23 22 22 23 24 26 28 28 26 26 27 27 27 28 30 31 31 30 30 30 30 30 30 31 32 31 31 31 32 31
2 4 2 2 1 4 7 5 3 4 4 3 2 1 4 3 2 4 7 7 3 0 1 1 2 4 6 6 7 10 9 8 9 10 5 2 2 5 6 6 7 8 9 10 9 9 13 15 16 16 16 18 19 21 23 23 22 22 22 24 25 27 27 26 25 26 27 27 27 28 29 29 29 29 30 29 28 28 29 30 31 30 30 30 31 31
3 4 2 1 1 3 5 6 6 3 2 4 2 2 3 4 2 4 7 4 0 2 2 3 4 6 7 6 7 9 8 9 12 9 2 4 3 5 6 7 8 9 10 10 9 11 15 17 17 17 18 19 21 22 23 22 22 23 24 25 26 26 25 25 26 26 26 26 27 28 28 29 29 29 29 28 27 27 28 29 30 30 31 31 31 32
3 3 2 1 1 2 3 5 3 3 2 2 1 4 3 1 2 6 5 2 2 1 2 3 5 6 7 8 7 7 8 10 10 4 3 4 4 5 5 7 8 10 11 11 12 15 17 17 16 18 20 21 22 23 23 22 23 24 25 26 25 25 24 25 26 26 25 26 27 27 28 29 29 29 29 29 29 30 31 31 31 33 35 35 34 33
4 3 2 2 2 1 1 2 3 2 2 2 2 3 1 1 2 3 2 2 3 2 1 3 5 6 6 7 6 6 8 9 6 1 4 3 4 6 6 7 10 12 14 14 15 16 17 16 17 21 23 23 23 23 23 23 24 26 27 26 25 25 25 26 26 26 26 27 28 29 31 31 30 31 32 32 33 34 34 34 35 37 38 38 37 36
5 4 3 2 2 2 1 2 4 4 3 3 3 3 3 4 4 2 1 3 3 2 2 4 4 6 7 6 6 6 7 7 4 0 2 3 4 6 7 9 12 15 15 16 17 17 16 17 20 24 25 23 24 24 24 25 26 26 26 26 25 26 26 27 27 27 28 29 30 32 34 33 32 33 35 36 36 37 37 37 38 39 39 38 39 40
7 4 4 5 3 3 3 1 2 2 4 4 4 4 4 3 3 2 0 3 2 2 3 3 4 6 6 5 5 5 6 7 6 2 2 3 4 7 9 10 13 15 15 15 16 15 16 19 23 24 23 23 24 25 24 25 26 25 25 24 24 25 26 26 27 28 30 32 34 35 34 33 34 35 36 38 39 38 38 38 38 38 39 39 40 40
6 5 4 5 3 1 2 0 3 3 3 3 4 5 5 0 5 4 5 5 3 3 3 3 4 5 4 3 4 3 3 6 7 6 6 8 8 9 10 12 14 15 15 15 14 14 16 20 23 23 23 23 23 24 24 24 24 24 24 23 23 24 25 25 28 30 33 34 35 35 35 35 37 38 38 39 39 38 37 36 36 38 38 38 39 37
3 3 3 4 3 1 1 1 3 3 2 2 4 6 4 2 5 3 5 4 2 2 2 1 2 4 3 2 3 3 4 5 7 9 11 11 9 9 11 14 15 15 15 15 14 15 18 21 21 21 22 23 24 24 24 23 23 23 23 22 22 23 24 26 30 33 34 34 35 36 37 38 38 38 38 38 37 36 36 35 36 37 37 37 37 35
2 2 2 2 2 1 1 1 4 4 2 2 4 6 2 2 2 4 3 2 3 5 3 1 2 4 3 3 4 5 6 7 8 9 9 9 9 10 14 16 16 15 15 15 14 16 20 22 21 21 23 23 24 25 24 24 24 25 24 22 22 23 26 29 33 34 35 36 37 38 39 39 38 37 37 36 35 35 36 36 36 37 36 36 36 35
1 1 3 2 1 1 2 1 3 4 3 3 2 3 1 1 2 3 2 2 4 4 2 1 3 3 3 4 5 6 7 8 7 7 8 8 9 11 15 16 16 16 16 15 16 19 22 22 21 22 24 24 24 25 25 25 26 25 24 24 25 27 30 33 35 36 36 38 39 39 39 39 38 37 35 34 34 34 35 36 37 37 36 34 34 35
2 1 1 3 2 2 1 1 2 2 4 4 2 2 2 2 1 1 2 4 4 2 1 2 3 2 2 5 7 7 7 7 6 6 7 7 8 11 14 15 15 16 16 17 19 22 22 22 22 24 24 24 25 26 26 25 26 26 26 26 28 31 34 35 36 37 38 39 39 39 39 38 37 36 34 33 33 34 35 36 36 36 35 34 33 33
3 4 3 3 3 3 4 6 4 1 2 3 3 3 3 2 1 1 1 4 4 1 0 1 3 3 3 5 7 7 6 6 6 7 7 7 9 12 14 15 15 15 16 18 20 21 21 22 23 24 24 25 26 26 25 25 25 26 27 28 30 33 35 36 37 38 39 39 39 39 39 38 36 34 33 32 33 34 35 35 34 33 34 34 32 31
2 2 3 1 3 4 5 6 4 1 2 2 3 3 3 2 2 1 2 3 3 1 1 2 3 3 4 5 6 6 5 5 6 8 8 8 11 13 14 15 15 15 17 18 20 21 22 22 22 22 24 26 26 25 25 24 24 25 28 30 31 33 34 35 37 38 40 40 40 39 37 36 35 33 32 33 34 33 32 31 31 31 32 31 30 31
1 2 2 1 1 3 3 3 2 2 4 4 2 3 2 2 2 2 2 3 2 1 1 2 3 5 6 6 5 5 6 6 7 7 7 8 11 13 13 14 14 15 18 19 20 21 22 21 21 22 24 26 26 25 25 25 25 25 27 30 31 32 34 35 36 38 40 40 39 38 36 34 33 33 34 36 36 34 32 31 30 28 28 28 29 30
1 3 2 2 2 2 5 5 4 4 5 2 2 3 2 2 3 3 2 2 1 1 2 4 4 5 6 5 5 6 6 6 6 6 6 8 11 12 12 13 15 17 19 20 21 21 20 20 21 23 24 25 25 25 25 26 27 27 28 30 31 32 34 35 36 38 39 38 37 36 34 33 32 33 35 35 35 34 33 34 33 30 29 29 28 27
3 3 2 2 2 4 6 5 5 5 3 1 3 3 3 3 3 3 3 3 2 2 4 5 5 5 6 5 5 5 5 6 6 6 7 9 11 12 13 15 16 18 19 20 20 19 19 20 22 23 24 25 25 26 26 27 28 28 28 30 31 32 33 36 37 38 37 36 35 35 34 33 32 34 35 34 33 32 31 30 30 30 31 31 29 27
2 2 2 0 2 4 5 2 0 2 5 4 3 4 4 4 4 3 3 3 3 2 3 4 5 6 6 5 5 5 5 6 7 7 9 10 12 13 14 16 17 18 19 19 19 18 19 20 21 22 24 24 25 25 26 28 29 29 29 30 31 31 33 36 37 37 36 36 35 34 33 33 34 35 35 34 34 33 31 29 27 27 27 28 28 30
4 5 4 3 3 5 5 4 4 2 5 5 1 3 4 5 5 3 3 4 3 3 4 4 5 5 5 5 5 5 6 7 8 9 10 12 13 15 15 16 18 19 20 20 19 20 21 22 22 23 24 25 25 26 27 28 29 29 29 30 30 31 33 35 35 35 35 36 35 33 32 33 34 35 34 34 33 33 32 32 32 30 27 25 28 32
Wind_Direction
77 113 247 226 219 228 224 209 202 183 145 121 141 140 160 175 258 315 116 183 106 78 42 69 93 90 74 51 37 38 46 60 64 65 64 65 66 65 66 65 63 64 62 57 56 53 53 53 51 50 48 47 47 46 46 46 45 44 42 40 37 33 32 31 29 27 25 23 19 15 12 11 9 5 0 358 357 354 353 350 347 346 345 342 341 340
61 166 240 233 220 224 231 199 156 136 117 86 154 157 165 188 222 29 123 261 52 91 97 108 92 75 60 57 43 48 58 52 53 63 65 67 69 67 66 65 64 65 59 55 53 50 50 49 48 47 46 45 45 44 44 44 43 43 40 37 33 30 30 30 28 26 24 21 16 13 10 7 5 5 3 1 359 357 355 353 350 349 347 344 342 341
17 243 249 240 200 152 68 137 137 121 114 82 125 146 202 225 144 96 55 6 27 99 152 155 99 81 67 70 60 58 67 58 51 61 66 71 71 66 63 61 61 59 53 50 49 48 48 47 47 46 45 45 44 44 42 41 41 40 37 33 31 30 29 29 28 25 22 16 13 11 8 5 2 2 2 2 2 0 357 354 351 350 348 345 343 341
307 256 259 232 162 134 65 73 107 92 91 111 133 146 213 237 156 151 34 20 25 89 146 141 99 91 94 79 69 62 71 70 59 62 65 69 73 72 67 62 59 58 55 53 51 48 47 46 45 43 42 42 43 42 40 38 39 38 35 30 28 27 26 28 27 25 21 10 7 7 6 7 6 4 4 3 1 357 354 351 349 349 349 348 346 345
249 250 144 84 97 142 114 37 104 125 313 287 183 179 190 198 166 127 132 101 52 66 137 124 91 111 134 103 94 82 73 64 53 63 65 61 72 76 73 67 61 61 59 57 55 49 47 46 45 44 42 41 42 40 39 37 36 36 34 29 27 24 23 24 24 24 17 7 5 6 6 7 8 7 5 0 355 351 350 348 347 348 349 349 349 351
277 276 142 86 59 75 114 289 226 167 252 307 230 207 196 167 124 120 143 129 70 79 201 149 107 216 170 130 128 124 76 64 44 58 66 61 67 68 70 69 63 64 62 61 61 54 51 49 47 45 42 40 39 37 36 34 32 31 29 26 24 22 19 19 20 20 13 7 8 8 7 7 8 6 2 356 348 343 344 343 344 346 348 350 351 352
286 351 61 102 89 62 61 303 268 153 129 312 263 184 160 124 123 142 161 150 112 198 221 197 191 191 196 174 148 136 94 78 57 58 66 66 70 68 69 70 65 66 66 65 63 56 52 47 45 45 41 40 38 33 32 30 26 24 22 21 19 18 17 16 16 14 10 9 9 9 11 10 6 358 351 348 343 340 341 341 343 345 348 352 351 350
260 357 29 51 66 52 33 350 297 124 117 255 245 133 120 110 135 165 176 186 189 193 154 180 165 133 207 194 149 137 107 83 66 61 65 70 76 77 76 74 69 67 67 69 63 54 51 47 47 47 44 42 38 33 31 27 21 19 18 16 15 15 14 14 13 9 8 8 7 8 10 4 359 351 343 342 342 343 342 341 343 343 346 352 352 346
288 18 25 37 45 36 327 288 246 138 113 249 200 125 95 102 143 164 167 188 345 26 260 200 167 161 244 151 133 138 118 101 85 72 68 77 86 88 85 81 75 72 71 73 69 59 54 50 50 50 48 43 37 32 29 25 21 18 17 12 10 12 12 10 9 6 5 7 6 6 3 358 353 347 342 342 343 343 342 341 340 341 344 349 346 338
346 94 151 87 59 355 265 284 235 147 38 205 132 92 52 58 61 88 132 134 62 31 238 214 186 195 257 153 147 157 147 141 126 97 77 83 95 95 91 88 83 78 76 77 74 65 56 51 49 49 48 41 33 29 24 22 21 16 12 7 5 8 8 7 5 2 1 4 5 1 357 353 349 346 343 341 341 340 339 337 335 339 341 340 336 333
323 301 181 97 76 209 198 8 70 131 140 130 105 64 48 45 41 46 69 99 79 274 253 241 211 181 240 178 152 181 178 150 140 122 98 93 99 101 97 92 87 80 79 83 74 61 50 45 43 44 45 38 30 25 21 19 18 14 10 6 3 4 5 3 2 360 358 0 2 355 350 349 346 345 343 338 336 335 334 332 333 337 336 333 332 329
5 23 353 342 330 71 98 75 37 32 75 107 94 65 55 350 19 30 353 55 108 255 261 278 248 163 207 226 95 22 87 124 131 128 115 105 105 111 107 98 97 89 85 86 69 51 39 34 34 39 43 36 27 23 19 15 13 11 8 4 1 1 1 360 357 356 355 356 357 346 343 345 344 343 340 333 329 328 328 327 329 333 332 330 328 325
5 337 318 325 340 39 57 38 13 10 40 53 30 57 40 335 7 357 313 300 202 245 254 312 2 151 187 315 74 67 87 105 115 119 116 109 111 119 120 113 110 95 83 81 66 48 35 28 29 37 39 32 25 21 16 12 9 7 4 2 360 357 356 355 353 352 350 350 350 340 339 342 341 341 338 330 324 323 322 324 328 332 330 327 325 323
342 304 335 10 349 19 56 49 3 332 2 5 350 95 86 38 26 302 276 271 274 257 228 317 9 135 111 97 119 88 97 113 114 114 107 97 107 127 132 119 104 90 80 80 69 49 34 28 34 41 36 28 23 18 13 8 4 1 0 359 356 352 351 350 348 346 343 342 342 338 337 337 338 338 335 328 324 321 319 323 325 325 325 323 321 322
14 308 333 19 326 360 41 60 75 218 1 338 191 132 132 156 154 264 237 235 279 278 283 325 23 217 175 109 130 107 101 112 118 121 105 86 85 116 137 125 99 85 80 83 68 48 33 33 47 47 32 26 20 13 9 4 359 358 358 354 350 348 346 345 344 341 338 338 337 336 334 332 335 336 332 327 326 322 317 318 319 320 321 319 317 319
49 272 280 316 293 12 29 295 130 79 32 275 177 92 51 187 154 204 197 186 229 297 311 323 104 11 45 84 110 111 104 102 117 128 108 89 77 88 124 140 110 80 76 85 63 42 33 39 56 46 28 24 16 8 4 358 354 356 354 350 347 345 343 343 342 339 337 335 333 333 331 327 333 335 330 324 325 322 315 313 315 317 318 316 314 317
21 280 291 334 325 57 71 272 355 38 343 346 49 36 256 171 119 111 277 21 69 26 291 172 132 84 76 174 176 128 113 99 105 124 114 98 78 64 43 123 132 87 73 82 57 36 31 43 52 35 25 20 10 3 357 352 352 355 352 348 346 343 341 340 338 336 334 331 330 330 327 325 331 333 329 323 323 322 318 314 314 317 318 316 313 315
139 280 305 13 355 297 182 201 10 17 92 59 359 241 239 69 92 105 308 354 28 322 274 76 133 177 188 181 172 158 141 114 92 93 126 112 75 50 22 18 137 101 69 67 50 31 30 47 38 22 21 14 4 356 351 350 354 354 350 345 343 340 337 336 335 333 331 329 331 331 326 325 329 331 327 323 322 323 321 316 314 316 316 315 313 313
116 294 305 323 214 299 345 79 359 333 14 61 263 235 73 68 9 20 27 349 358 311 289 339 110 209 214 171 180 182 161 124 93 63 103 89 50 43 13 0 76 92 53 41 37 25 33 45 22 15 16 4 357 351 348 349 350 349 347 343 340 336 333 333 332 331 331 331 332 329 325 324 326 326 324 322 321 321 321 318 315 315 314 313 313 313
81 103 292 278 251 319 4 48 4 330 338 10 24 360 28 121 165 339 25 177 236 295 296 329 339 251 247 161 168 166 137 118 103 60 67 32 25 40 6 350 19 68 40 25 19 23 32 18 1 9 9 357 351 346 344 347 346 345 345 343 339 334 332 332 331 330 330 332 332 328 325 324 323 323 321 322 321 320 319 318 316 314 313 312 312 312
3 101 265 291 328 7 13 16 353 312 313 348 28 12 347 356 120 340 60 115 141 251 254 317 312 260 81 26 118 125 114 115 100 66 50 16 18 31 2 348 45 64 37 19 14 26 19 359 351 359 358 349 346 344 343 347 346 342 342 341 338 335 333 331 331 330 329 331 331 328 326 324 322 321 319 319 320 318 316 316 314 313 312 311 310 311
1 89 247 299 341 16 342 317 310 266 259 73 74 37 310 291 33 47 339 332 54 95 168 222 298 278 81 39 94 98 93 102 81 61 38 10 11 18 359 2 92 67 30 14 13 23 7 352 347 349 348 346 346 345 344 346 347 343 340 339 336 335 334 331 330 328 328 329 328 327 326 323 321 321 320 318 317 316 315 314 314 313 312 311 310 310
41 88 46 293 304 315 291 302 333 96 92 90 76 40 357 346 73 101 258 285 347 354 26 123 299 265 60 40 85 77 65 85 72 57 31 3 359 0 353 32 99 53 19 7 4 10 357 347 345 346 348 348 346 346 344 343 344 342 339 337 335 333 333 330 329 328 327 327 325 325 326 324 323 322 321 318 315 315 315 315 314 313 313 312 310 309
48 64 22 304 301 319 316 325 359 89 81 70 35 30 43 344 4 166 190 205 278 323 10 60 310 263 202 100 98 82 60 67 66 45 19 356 346 351 353 39 74 26 7 358 353 356 350 345 346 350 351 348 345 344 343 341 341 339 338 336 333 332 330 329 329 327 327 325 325 325 324 323 323 321 319 318 315 314 314 313 313 313 313 310 308 308
359 46 45 7 350 346 345 351 340 342 39 50 3 11 27 1 360 311 191 45 358 305 70 125 264 271 135 121 104 85 56 41 41 23 6 354 347 350 357 28 31 9 358 352 350 351 349 347 347 350 350 346 342 342 341 340 339 338 336 333 331 329 327 327 327 326 325 324 323 323 322 321 321 321 319 317 314 313 313 313 312 312 312 309 307 307
88 132 91 85 43 330 312 313 317 319 350 23 1 0 10 23 14 321 288 37 34 333 33 154 230 285 134 152 116 62 36 10 2 357 353 354 349 347 357 20 10 1 354 352 350 348 347 344 343 345 345 341 340 340 340 339 338 335 332 330 328 326 324 326 327 325 324 323 322 322 321 321 321 320 318 316 314 313 312 313 312 311 309 307 306 307
100 67 63 126 160 221 241 259 310 341 347 339 343 352 358 357 360 51 78 51 235 308 334 222 200 330 126 154 34 17 10 354 346 346 345 347 345 344 9 21 3 358 351 348 347 343 340 339 340 341 340 338 339 340 340 339 337 333 330 327 326 325 324 326 326 325 324 323 321 320 320 321 320 319 317 314 313 313 312 312 311 309 307 304 305 305
87 33 21 112 183 238 241 276 324 19 71 46 358 355 354 352 13 65 80 13 59 42 310 263 57 336 327 77 23 354 351 348 340 340 340 337 337 343 18 5 353 351 345 342 341 338 336 338 341 340 338 338 339 339 339 337 333 330 327 324 325 325 324 325 325 324 323 322 320 320 319 320 319 317 315 312 312 313 313 311 309 307 305 303 303 303
102 48 350 119 259 279 315 321 340 76 90 64 34 11 2 7 32 69 101 78 66 70 268 294 350 313 285 52 7 338 346 345 333 331 332 329 333 353 14 352 347 344 339 339 338 335 337 341 340 338 337 337 338 338 337 334 330 329 326 324 324 324 324 324 324 323 323 321 320 320 320 319 318 316 314 312 312 312 311 310 308 306 304 304 303 303
115 15 321 130 309 321 355 348 32 98 105 63 40 22 8 12 38 66 112 273 10 278 266 315 331 295 218 44 336 330 346 333 323 325 327 328 338 16 7 343 340 338 335 336 335 334 340 342 339 336 336 336 338 337 335 332 330 329 327 325 324 324 324 325 324 323 322 321 320 319 319 319 318 316 315 313 312 311 310 310 308 307 305 304 303 302
35 357 342 80 351 318 337 3 36 89 113 101 52 17 10 11 27 37 20 357 343 301 295 332 316 283 118 35 328 328 335 326 324 325 324 328 352 24 351 336 335 333 333 334 332 336 343 341 337 335 334 335 336 335 333 331 329 328 326 325 324 323 324 325 324 323 321 320 320 321 321 320 319 318 316 314 313 312 311 310 309 307 306 305 304 303
27 11 7 52 16 302 312 10 357 56 95 81 21 357 359 360 4 1 332 315 307 297 305 323 310 279 345 343 327 326 328 325 321 318 319 331 24 11 339 332 332 331 333 335 335 341 343 337 334 333 333 334 334 333 332 330 329 327 326 325 324 323 324 324 324 322 321 321 321 321 322 321 320 318 316 314 313 312 312 311 309 307 306 306 306 304
51 61 31 41 17 287 295 329 302 12 48 2 322 331 318 309 6 343 299 292 286 271 281 295 290 304 330 330 327 325 326 326 319 317 322 338 14 353 337 329 330 334 337 335 334 339 337 333 332 331 332 334 333 331 331 330 328 326 325 324 323 323 323 323 322 320 319 320 320 321 321 320 319 317 315 314 312 311 311 310 308 307 306 305 305 304
65 85 93 47 21 282 296 326 24 55 24 278 225 311 276 237 93 352 306 300 307 239 205 274 310 332 333 333 327 320 321 326 316 312 326 54 21 340 333 333 337 339 336 332 331 336 334 331 331 330 331 332 331 330 329 328 326 324 323 322 322 322 323 321 320 320 319 319 320 321 321 319 318 316 314 313 312 310 310 309 307 306 305 304 303 303
52 70 104 85 63 275 312 7 27 13 276 217 169 12 298 205 149 321 298 273 25 49 37 357 332 328 325 322 316 311 314 316 306 303 4 82 28 344 340 341 344 340 333 330 333 336 334 332 331 332 333 332 330 329 329 327 326 324 322 322 322 322 322 320 319 319 319 319 321 322 322 320 318 316 314 313 313 311 309 308 307 307 306 305 303 302
79 91 109 86 25 325 4 25 352 287 239 200 359 354 348 51 353 331 316 225 173 82 44 336 307 312 316 311 311 315 314 307 299 290 101 78 21 11 359 343 341 336 329 331 336 336 332 330 330 332 332 330 329 328 327 326 326 324 322 322 322 322 322 322 320 320 321 322 322 323 323 321 319 317 315 315 315 313 312 311 310 309 310 308 306 304
93 105 82 48 36 45 26 279 291 325 1 343 329 337 347 287 301 329 315 242 199 163 3 311 298 303 309 308 313 317 308 301 290 193 116 85 41 22 359 339 337 332 327 329 332 330 326 325 328 331 330 329 328 328 328 327 327 325 323 323 324 325 325 324 323 323 324 324 324 324 324 323 320 318 317 317 317 315 314 313 312 312 313 311 309 308
57 77 90 77 40 68 67 318 337 360 327 261 232 242 250 246 237 201 233 257 207 191 307 313 301 307 312 315 320 321 315 315 311 263 110 90 49 12 351 341 338 331 326 328 328 326 326 328 330 330 329 328 328 329 330 329 328 327 324 324 326 327 326 325 325 326 327 326 325 324 323 322 321 319 318 317 317 315 314 314 314 314 314 312 309 309
37 45 83 82 41 49 74 11 300 259 259 237 216 249 281 266 212 149 326 287 230 235 296 314 305 310 317 313 318 334 339 329 319 322 43 44 14 1 350 340 334 328 326 327 326 326 328 329 329 328 328 328 329 329 331 330 328 326 323 323 325 326 325 326 326 327 326 324 324 323 322 322 321 320 319 318 317 316 315 315 314 314 314 313 310 310
22 7 33 58 51 84 116 250 256 233 242 222 214 264 296 223 118 71 343 302 231 227 295 326 315 311 313 305 315 340 336 311 303 318 349 354 349 349 344 334 331 329 327 326 325 327 329 329 329 328 328 328 328 329 330 329 327 324 322 322 324 324 324 326 325 325 324 323 323 323 322 322 322 321 321 319 318 317 316 315 315 314 314 313 312 311
8 355 22 73 78 76 133 257 282 268 240 213 236 267 289 91 90 26 315 281 245 289 317 2 319 307 303 298 307 303 286 288 295 310 329 338 337 336 334 330 328 327 326 325 326 330 331 330 328 327 326 327 328 329 330 329 326 323 321 321 322 322 324 325 324 324 324 323 323 323 323 324 324 323 322 322 320 318 317 317 317 315 314 314 313 312
5 347 346 58 66 35 126 195 291 288 237 199 266 275 280 76 7 306 278 275 327 327 338 36 315 306 301 285 288 288 288 296 302 308 321 329 329 329 329 328 327 327 326 326 328 332 333 330 328 326 326 329 330 330 331 330 327 324 323 322 322 323 325 325 325 326 325 324 325 325 325 326 326 325 324 324 322 320 319 319 319 318 316 316 316 316
191 328 319 301 209 26 21 7 320 296 240 207 274 307 348 135 276 287 303 331 326 319 329 327 300 307 314 297 293 294 297 302 307 313 319 321 324 327 326 325 326 325 326 329 331 334 334 330 327 327 328 330 331 331 332 331 328 326 326 324 324 326 327 327 328 327 326 326 327 327 327 327 328 328 327 326 325 322 320 321 321 320 319 319 318 318
206 176 276 265 204 109 33 271 227 231 223 202 209 295 262 215 210 18 323 310 310 309 279 278 286 299 316 307 303 301 299 303 311 317 317 317 323 326 322 321 324 324 327 330 330 332 333 329 326 327 327 328 331 332 333 332 329 327 326 325 327 329 329 329 330 328 327 328 328 328 329 329 329 330 329 328 327 325 322 323 323 321 321 322 320 319
220 188 191 237 229 188 208 235 239 223 185 185 201 232 231 203 109 94 268 284 294 294 192 282 295 303 313 306 299 295 296 306 315 316 316 320 325 324 320 320 322 323 325 326 327 329 331 328 325 325 324 327 331 333 333 334 331 327 326 327 329 330 330 330 330 329 328 329 329 329 330 330 330 331 331 331 330 327 325 325 324 322 322 322 322 320
221 154 135 187 264 261 251 257 268 276 244 231 223 217 205 173 143 152 246 268 278 285 315 311 303 303 308 302 293 291 298 308 313 312 314 320 321 318 317 317 319 321 323 324 326 329 329 327 325 324 324 326 331 333 333 334 333 329 328 329 331 331 331 331 331 330 329 329 330 331 332 331 331 332 332 332 332 330 326 325 324 322 321 321 322 321
252 144 139 175 279 306 284 252 218 244 267 266 220 190 190 184 181 187 229 245 246 251 297 307 306 298 297 295 290 292 301 308 311 311 313 317 316 313 314 317 319 322 324 325 326 329 328 326 325 324 324 326 330 333 333 334 334 332 331 331 332 333 333 333 332 330 329 330 331 332 333 333 332 331 333 334 335 333 330 328 327 323 320 321 323 322
171 159 197 206 194 230 256 259 270 282 278 254 169 179 189 189 195 188 186 210 214 246 280 288 297 294 292 293 295 297 302 306 309 310 313 313 311 309 313 318 320 321 322 324 326 327 326 324 324 324 324 326 329 332 333 333 334 335 334 334 335 335 334 334 333 330 329 330 332 332 333 333 332 331 333 334 335 335 333 332 331 328 324 325 324 322
127 148 194 203 226 264 275 288 310 312 300 186 170 193 189 189 202 187 165 182 202 246 281 284 289 293 291 295 301 301 302 305 310 317 316 313 311 312 315 318 319 319 320 322 324 325 324 323 324 324 324 326 329 332 333 333 335 336 336 336 337 338 336 334 333 332 331 332 333 333 333 334 333 333 334 333 334 335 334 332 331 327 324 325 326 324
146 187 187 135 296 279 269 254 262 312 296 274 218 192 180 178 185 180 177 195 214 238 268 281 291 294 288 288 300 308 305 305 313 320 317 311 311 312 315 317 318 318 320 322 323 323 324 325 325 325 325 328 331 332 332 333 335 337 338 339 340 339 338 336 334 333 332 333 334 334 334 333 334 334 335 335 334 334 333 332 332 330 326 325 326 327
187 192 171 174 234 255 254 223 166 189 275 279 210 160 173 171 169 188 208 211 222 244 261 275 289 294 288 285 293 302 304 304 311 318 315 309 309 313 317 319 319 319 321 323 324 325 326 328 328 328 328 330 331 332 332 333 335 338 339 341 341 340 338 337 335 332 331 332 333 333 333 333 333 335 335 336 336 336 334 333 334 336 336 334 332 333